STARLINK-31975, 59886

Orbit data source: Space-Track

STARLINK-31975, 59886 is a payload satellite owned by SpaceX/Seattle (US) in LEO that was launched on Tue, 28 May 2024 UTC via an FALCON 9 launch vehicle from the Air Force Eastern Test Range (AFETR). Payload-class satellites include a variety of spacecraft equipped with specific instruments for various scientific and technological missions. These include communications satellites like Starlink; space stations such as the ISS; scientific satellites like the Hubble; Earth observation satellites from companies like Planet Labs, Umbra, and HawkEye 360; GPS; miniature CubeSats for education and research; and military/defense satellites.

Loading next visibility...
Identifier
59886, 2024-100B
Orbit
LEO
Country
Flag of USUS
Related business
Manufacturer
SpaceX/Seattle
Mission
Operational Commercial Communications
Bus & Motor
STARLINK V2M, Unknown motor
Mass
730 kg wet, ~700 kg dry
Launch date (UTC)
2024-05-28 (2 years ago)
Launch vehicle
FALCON 9
Launch site
Air Force Eastern Test Range (AFETR)
Object type
Payload
Rocket body
Debris
Shape & HBR
Box + 2 Pan, 17.7 m
Radar Cross Section
33.884 m², Large (>1 m²)

Expand to show TLE details & history
Last TLE update: 13 hours ago

TLE from 13 hours ago
0 STARLINK-31975
1 59886U 24100B   26036.10850834 -.00000788  00000-0 -19126-4 0  9997
2 59886  43.0009 309.4289 0000839 267.2629  92.8126 15.27552014 96176
Epoch: 2026-02-05T02:36Z
TLE epoch observation values (Epoch: 2026-02-05T02:36:15.120Z)
Latitude
-0.00006°
Longitude
135.10036°
Altitude
482.937 km
Speed
7.626 km/s
True Right ascension
20h 37m 42s
True Declination
0° 00' 00"
Sunlit
Object was in daylight at epoch
Visualization orbit readout
Latitude
Unknown
Longitude
Unknown
Altitude
Unknown
Speed
Unknown
Apparent Right ascension
Unknown
Apparent Declination
Unknown
Sunlit
N/A
Visualization observer readout
Local Sidereal Time
17:14:58
Azimuth
Unknown
Elevation
Unknown
Doppler factor
Unknown
Orbital elements
Apogee altitude
485.654 km
Perigee altitude
484.502 km
Semi-major axis
6,863.215 km
Eccentricity
0.00008
Inclination
43.0009°
RAAN
309.4289°
Arg. of periapsis
267.2629°
True anomaly
92.8222°
Mean anomaly
92.8126°
Eccentric anomaly
92.8174°
Mean motion
3.81726 °/min
Orbital period
94.31 mins
BSTAR
-0.000019126
Loading maneuver chart data...
Computing Atmospheric mass density...
Loading historical data...
Loading historical data...
Loading historical data...
Loading historical data...
Loading historical data...
Loading historical data...
Loading historical data...

Documentation

Showing up to 5 results
|